{"data":{"norad_id":45689,"intl_designator":"2020-035AJ","name":"STARLINK-1413","alt_names":[],"object_type":"PAYLOAD","status":"ACTIVE","operator":null,"country":"US","launch_date":"2020-06-04","launch_site_code":"AFETR","launch_vehicle":null,"mission":null,"orbit_class":"UNKNOWN","rcs_meters":null,"size_class":null,"mass_kg":null,"dimensions":null,"purposes":["comms"],"wikipedia_slug":null,"has_3d_model":false,"image_url":null,"decayed_at":null,"tle_current":{"epoch":"2026-09-20T03:33:48.030048Z","epoch_age_seconds":48593,"freshness":"FRESH","line1":"1 45689U 20035AJ  26263.14847257  .00044757  00000+0  98342-3 0  9994","line2":"2 45689  53.1528 218.5203 0002754  93.5648 266.5674 15.43595642348771","mean_motion":15.43595642,"eccentricity":0.0002754,"inclination_deg":53.1528,"raan_deg":218.5203,"arg_perigee_deg":93.5648,"mean_anomaly_deg":266.5674,"bstar":0.00098342,"rev_number":34877,"period_min":93.288680067419,"perigee_km":433.6311506377,"apogee_km":437.38410609901,"semimajor_km":6813.6446283684,"source":"CELESTRAK","updated_at":"2026-09-20T09:00:38.452875Z"}}}